User: anonymous   Login
Location: Unspecified
(0.0000°N, 0.0000°E)
Time: 03:22:27
(UTC+00:00)
Language:

TBA - TO BE ASSIGNED - Orbit

View from above orbital plane
View from above orbital plane
View from above satellite
View from above satellite

Ground track
Ground track

The orbit is defined by the following mean orbital elements,

1 68351U          26145.25658943 +.00000000 +00000-0 +77082-4 0 00004
2 68351  54.9795 129.7242 0009738  55.1745 305.0168 14.72493622    08
Epoch (UTC): 25 May 2026 06:09:29
Eccentricity: 0.0009738
inclination: 54.9795°
perigee height: 646 km
apogee height: 660 km
right ascension of ascending node: 129.7242°
argument of perigee: 55.1745°
revolutions per day: 14.72493622
mean anomaly at epoch: 305.0168°

The dashed part of the orbit path shows where the satellite is in the earth's shadow,  

DLR